[Iaude] MPEC U76: 2023 UT [a=1.80,e=0.41,i=13.0,H=21.6]

mpec at marsden.cfa.harvard.edu mpec at marsden.cfa.harvard.edu
Wed Oct 18 09:59:56 EDT 2023


M.P.E.C. 2023-U76                              Issued 2023 October 18, 13:58 UT

     The Minor Planet Electronic Circulars contain information on unusual
         minor planets, routine data on comets and natural satellites,
         and occasional editorial announcements.  They are published
    on behalf of Division F of the International Astronomical Union by the
          Minor Planet Center, Smithsonian Astrophysical Observatory,
                          Cambridge, MA 02138, U.S.A.
			  
             Prepared using the Tamkin Foundation Computer Network

                              MPC at CFA.HARVARD.EDU
            URL https://www.minorplanetcenter.net/    ISSN 1523-6714

                                    2023 UT                                     


Observations:
     K23U00T*KC2023 10 16.00094 00 41 38.810-50 44 04.67         19.6 GXEU076L87
     K23U00T KC2023 10 16.00247 00 41 38.813-50 43 58.80         19.4 GXEU076L87
     K23U00T KC2023 10 16.00703 00 41 38.784-50 43 41.92         18.8 GXEU076L87
     K23U00T KC2023 10 16.01161 00 41 38.671-50 43 24.96         18.9 GXEU076L87
     K23U00T KC2023 10 16.01314 00 41 38.743-50 43 19.20         19.0 GXEU076L87
     K23U00T KC2023 10 16.13074 00 41 39.775-50 35 58.88         18.6 GXEU076L87
     K23U00T KC2023 10 16.13249 00 41 39.684-50 35 52.22         18.9 GXEU076L87
     K23U00T  C2023 10 16.74288 00 42 08.29 -49 59 16.1          19.4 GVEU076M28
     K23U00T  C2023 10 16.74489 00 42 08.31 -49 59 09.6          19.0 GVEU076M28
     K23U00T KC2023 10 16.75968 00 42 09.401-49 58 24.56         18.4 GXEU076L87
     K23U00T KC2023 10 16.76402 00 42 09.336-49 58 10.06         19.4 GXEU076L87
     K23U00T KC2023 10 16.76836 00 42 09.305-49 57 54.76         19.7 GXEU076L87
     K23U00T KC2023 10 17.37247 00 42 26.30 -49 19 33.4          18.8 rZEU076R56
     K23U00T KC2023 10 17.38236 00 42 26.40 -49 18 56.2          18.8 rZEU076R56
     K23U00T KC2023 10 17.39225 00 42 26.42 -49 18 19.6          19.1 rZEU076R56
     K23U00T KC2023 10 17.51430800 42 26.80 -49 10 28.8          19.6 GVEU076474
     K23U00T KC2023 10 17.51713900 42 26.80 -49 10 17.6          19.5 GVEU076474
     K23U00T KC2023 10 17.51996900 42 26.83 -49 10 06.3          19.5 GVEU076474
     K23U00T  C2023 10 17.76750 00 42 39.88 -48 53 46.2          19.1 GVEU076M28
     K23U00T  C2023 10 17.76949 00 42 39.90 -48 53 38.8          19.1 GVEU076M28
     K23U00T  C2023 10 17.77149 00 42 39.92 -48 53 31.1          19.0 GVEU076M28
     K23U00T KC2023 10 17.77191 00 42 40.798-48 53 36.46         18.8 GXEU076L87
     K23U00T KC2023 10 17.77740 00 42 40.805-48 53 15.86         19.7 GXEU076L87
     K23U00T KC2023 10 17.78245 00 42 40.824-48 52 56.60         19.1 GXEU076L87
     K23U00T KC2023 10 18.50319600 42 59.80 -48 03 27.1          19.7 GVEU076474
     K23U00T KC2023 10 18.50602600 42 59.82 -48 03 14.9          19.6 GVEU076474
     K23U00T KC2023 10 18.50885600 42 59.85 -48 03 02.9          19.5 GVEU076474

Observer details:
474 Mount John Observatory, Lake Tekapo.  Observers A. C. Gilmore, P. M.
    Kilmartin.  Measurer P. M. Kilmartin.  1.0-m f/7.7 reflector + CCD.
L87 Moonbase South Observatory, Hakos.  Observer G. Duszanowicz.  Measurer J.
    Camarasa.  0.28-m f/1.9 reflector + CCD.
M28 Lesedi Telescope-SAAO Observatory, Sutherland.  Observers N. Erasmus, S.
    Potter, C. van Gend, S. Chandra, H. Worters.  Measurers T. Ngwane, N.
    Erasmus.  1.0-m f/8 Reflector + CCD.
R56 Scott Street Observatory, Lake Tekapo.  Observer A. Vilquin Barrajon.
    0.20-m f/8.1 reflector + CCD.

Orbital elements:
2023 UT                                                  Earth MOID = 0.0729 AU
Epoch 2023 Sept. 13.0 TT = JDT 2460200.5                Bell                    
M 340.12156              (2000.0)            P               Q                  
n   0.40943922     Peri.  350.20351     +0.81850629     -0.55254003             
a   1.7961520      Node    44.55667     +0.54110289     +0.64946477             
e   0.4087370      Incl.   12.95666     +0.19301584     +0.52239355             
P   2.41           H   21.68          G   0.15           U   9                  
Residuals in seconds of arc
231016 L87  0.1+  1.1-    231016 L87  1.7+  0.4-    231017 M28  1.1-  1.1+
231016 L87  0.2+  0.7-    231016 L87  0.7+  0.9-    231017 M28  1.1-  0.9+
231016 L87  0.0   0.4-    231016 L87  0.1+  0.7-    231017 M28  1.1-  1.0+
231016 L87  0.9-  0.2-    231017 R56  0.3+  0.1-    231017 L87  0.9+  0.0
231016 L87  0.2-  0.0     231017 R56  0.4+  0.2+    231017 L87  0.6+  0.1-
231016 L87  0.8+  1.1+    231017 R56  0.1-  0.3-    231017 L87  0.4+  0.0
231016 L87  0.4-  1.2+    231017 474  0.0   0.1-    231018 474  0.1-  0.1-
231016 M28  1.0-  1.4+    231017 474  0.1-  0.1-    231018 474  0.0   0.1+
231016 M28  1.0-  0.9+    231017 474  0.1+  0.0     231018 474  0.2+  0.0

Ephemeris:
2023 UT                  a,e,i = 1.80, 0.41, 13                  q = 1.0620
Date    TT    R. A. (2000) Decl.     Delta      r    Elong.  Phase     V
2023 09 18    00 32 38.5 -60 21 33   0.2532  1.1558   120.9    48.2    20.8
...
2023 10 03    00 37 22.1 -58 31 57   0.1930  1.1042   117.8    53.3    20.3
...
2023 10 11    00 39 40.6 -54 44 36   0.1608  1.0842   118.4    54.1    19.9
...
2023 10 17    00 42 11.5 -49 43 22   0.1373  1.0732   120.6    53.1    19.5
2023 10 18    00 42 43.4 -48 38 09   0.1335  1.0718   121.2    52.7    19.4
2023 10 19    00 43 17.7 -47 27 50   0.1298  1.0704   121.8    52.3    19.3
...
2023 10 25    00 47 40.0 -38 16 51   0.1088  1.0643   127.5    47.9    18.8
...
2023 11 02    00 56 17.6 -18 36 01   0.08871 1.0621   140.2    36.8    18.0
...
2023 11 17    01 22 11.2 +28 58 20   0.09969 1.0763   149.9    27.4    18.1

M. P. C. Staff               (C) Copyright 2023 MPC           M.P.E.C. 2023-U76





More information about the Iaude mailing list